Regional Weather Roundup
Issued by NWS New Orleans/Baton Rouge, LA

Home | Current Version | Previous Version | Text Only | Print | Product List | Glossary Off
Versions: 1 2 3 4 5 6 7 8 9 10 11 12 13 14 15 16 17 18 19 20 21 22 23 24 25 26 27 28 29 30 31 32 33 34 35 36 37 38 39 40 41 42 43 44 45 46 47 48 49 50

389
ASUS44 KLIX 262310
RWRLIX
NEW ORLEANS REGIONAL WEATHER ROUNDUP
NATIONAL WEATHER SERVICE NEW ORLEANS LA
500 PM CST WED NOV 26 2014

NOTE: "FAIR" INDICATES FEW OR NO CLOUDS BELOW 12,000 FEET WITH NO
      SIGNIFICANT WEATHER AND/OR OBSTRUCTIONS TO VISIBILITY.
      SKY/WX - SKY CONDITION AND SIGNIFICANT WEATHER.
      TMP - AIR TEMPERATURE.     DP    - DEWPOINT TEMPERATURE.
      RH  - RELATIVE HUMIDITY.   PRES  - PRESSURE.
      HI  - HEAT INDEX.          WCI   - WIND CHILL INDEX.

*  THESE STATIONS ARE NOT NWS OR FAA STATIONS AND ARE NOT UNDER
   NWS QUALITY CONTROL.

LAZ038-040-048-061>063-065>067-069-270000-
SOUTHEAST LOUISIANA

CITY           SKY/WX    TMP DP  RH WIND       PRES   REMARKS
N.O. AUDUBON     N/A     62  41  47 MISG        N/A
N.O. INTL ARPT PTCLDY    64  38  38 SW14      30.19R
N.O. LAKEFRONT CLEAR     64  41  42 SW17      30.19R
N.O. DOWNTOWN*   N/A     64  37  36 SW8       30.20R
SLIDELL        CLEAR     62  41  46 SW3       30.16S
BATON ROUGE    CLEAR     65  36  34 SW13      30.16S
BOOTHVILLE     CLEAR     60  45  57 SW8       30.21F
BELLE CHASSE   PTCLDY    61  39  44 SW6       30.19R
BOGALUSA*        N/A     61  38  42 SW6       30.16S
NEW ROADS*       N/A     64  40  40 SW8       30.16S
GONZALES*        N/A     64  41  42 SW8       30.19R
HAMMOND*       CLEAR     66  32  28 SW6       30.17S
HOUMA*         CLEAR     63  43  48 SW5       30.21R
PORT FOURCHON* CLEAR     63  46  55 W8        30.25S

$$

MSZ070-080>082-270000-
SOUTHERN MISSISSIPPI

CITY           SKY/WX    TMP DP  RH WIND       PRES   REMARKS
MCCOMB         CLEAR     64  36  35 SW10G18   30.13R
GULFPORT       CLEAR     56  45  66 S5        30.18R
BILOXI         CLEAR     55  44  68 SW10      30.18R
PASCAGOULA     CLEAR     53  42  66 VRB3      30.19R
STENNIS ARPT*  CLEAR     57  36  44 SW6       30.18R

$$

COASTAL OBSERVATIONS
LAKE AND NEARSHORE STATIONS

STATION/POSITION TIME  TEMP    WIND        PRES    WAVE
                       AIR SEA DIR/SP/G            HT/PER
                 (UTC) (F)     (DEG/KT/KT) (MB)    (FT/S)
PASCAGOULA       2300   58     230/  8/ 11 1021.6
WAVELAND YACHT   2300   57     210/  4/  5 1021.0
GRAND ISLE       2300   62 60  250/  8/ 10 1023.7
SOUTHWEST PASS   2300   63                 1023.6
NEW CANAL        2300   65 55  230/  6/ 12 1022.5
SHELL BEACH      2300   60 53  220/ 12/ 15 1022.0

OFFSHORE STATIONS

STATION/POSITION TIME  TEMP    WIND        PRES    WAVE
                       AIR SEA DIR/SP/G            HT/PER
                 (UTC) (F)     (DEG/KT/KT) (MB)    (FT/S)
64 S DAUPHIN ISL 2227   62 71  250/ 12/ 16 1023.9    2/ 4

$$




USA.gov is the U.S. government's official web portal to all federal, state and local government web resources and services.